Location: Linz
(48.3300°N, 14.3000°E)
Time: 07:17:26
(UTC+02:00)

Vanguard 1 Rocket - All Passes

Search period start: 24 June 2018 00:00
Search period end: 04 July 2018 00:00
Orbit: 653 x 4224 km, 34.3° (Epoch: 23 June)

Date Brightness Start Highest point End Pass type
(mag) Time Alt. Az. Time Alt. Az. Time Alt. Az.
24 Jun - 17:34:42 10° SSW 17:37:17 15° SSE 17:40:09 10° SE daylight
24 Jun - 19:57:32 10° SW 20:01:16 19° S 20:06:18 10° SE daylight
24 Jun - 22:23:39 10° SW 22:26:14 12° SSW 22:29:15 10° S visible
25 Jun - 16:25:57 10° S 16:26:53 11° SSE 16:27:48 10° SSE daylight
25 Jun - 18:47:29 10° SW 18:50:41 18° S 18:54:38 10° SE daylight
25 Jun - 21:11:57 10° SW 21:15:08 14° SSW 21:19:07 10° SSE daylight
26 Jun - 17:37:33 10° SSW 17:40:13 16° S 17:43:10 10° SE daylight
26 Jun - 20:01:13 10° SW 20:04:18 15° S 20:08:08 10° SSE daylight
27 Jun - 16:27:48 10° SSW 16:29:48 13° S 16:31:47 10° SE daylight
27 Jun - 18:50:50 10° SW 18:53:40 16° S 18:57:01 10° SSE daylight
28 Jun - 17:40:34 10° SW 17:43:11 15° S 17:46:00 10° SE daylight
28 Jun - 20:05:36 10° SSW 20:07:19 11° SSW 20:09:13 10° S daylight
29 Jun - 16:30:16 10° SSW 16:32:44 14° S 16:35:09 10° SE daylight
29 Jun - 18:54:30 10° SW 18:56:40 13° S 18:59:04 10° SSE daylight
30 Jun - 15:19:58 10° SSW 15:22:15 13° S 15:24:20 10° SE daylight
30 Jun - 17:43:46 10° SW 17:46:09 14° S 17:48:39 10° SSE daylight
01 Jul - 14:09:55 10° S 14:11:37 11° SSE 14:13:11 10° SSE daylight
01 Jul - 16:33:00 10° SW 16:35:42 15° S 16:38:16 10° SE daylight
02 Jul - 15:22:06 10° SSW 15:25:13 15° S 15:27:57 10° SE daylight
02 Jul - 17:47:14 10° SW 17:49:06 12° S 17:51:01 10° SSE daylight
03 Jul - 14:11:05 10° SSW 14:14:38 15° S 14:17:33 10° SE daylight
03 Jul - 16:35:55 10° SW 16:38:40 15° S 16:41:13 10° SSE daylight
